Tracking 35280 objects as of 7-Sep-2026
HD Live streaming from Space Station
objects crossing your sky now

STARLINK-32734

Track STARLINK-32734 now!
10-day predictions
STARLINK-32734 is classified as:


NORAD ID: 62476
Int'l Code: 2024-254Q
Launch date: December 31, 2024
Source: United States (US)
Launch site: AIR FORCE EASTERN TEST RANGE (AFETR)
Your satellite tracking list
Your tracking list is empty




NASA's NSSDC Master Catalog

Two Line Element Set (TLE):
1 62476U 24254Q   26249.56397041  .00011228  00000-0  41684-3 0  9990
2 62476  43.0003  75.0336 0000773 259.1081 100.9684 15.27584473 95316
Source of the keplerian elements: AFSPC